FW6665 Weather Reports


time (UTC)temp
C
wind
direction
speed
KPH
gust
KPH
rain 1hr
cm
rain 24hr
cm
rain mn
cm
humidity
%
barometer
mb
20260504130704 15 250 0.0 3.2 0.00 0.00 0.00 78 1011.9
20260504130204 15 250 0.0 3.2 0.00 0.00 0.00 78 1011.9
20260504120204 15 250 0.0 3.2 0.00 0.00 0.00 81 1011.9
20260504110704 14 250 0.0 3.2 0.00 0.00 0.00 82 1012.1
20260504110204 13 250 0.0 3.2 0.00 0.00 0.00 82 1012.1
20260504100204 13 248 0.0 1.6 0.00 0.00 0.00 82 1012.0
20260504081707 12 245 1.6 4.8 0.00 0.00 0.00 83 1011.6
20260504081204 12 245 1.6 4.8 0.00 0.00 0.00 83 1011.6
20260504080704 12 245 1.6 3.2 0.00 0.00 0.00 83 1011.7
20260504080212 12 245 0.0 3.2 0.00 0.00 0.00 83 1011.6
20260504070205 12 243 1.6 4.8 0.00 0.00 0.00 82 1010.8
20260504060205 13 244 0.0 1.6 0.00 0.00 0.00 82 1010.2
20260504050714 13 227 0.0 3.2 0.00 0.00 0.00 82 1009.7
20260504050204 13 227 0.0 3.2 0.00 0.00 0.00 82 1009.6
20260504045704 13 227 0.0 3.2 0.00 0.00 0.00 82 1009.6
20260504045204 12 227 0.0 3.2 0.00 0.00 0.00 82 1009.4
20260504044705 12 227 0.0 3.2 0.00 0.00 0.00 82 1009.4
20260504044204 12 227 0.0 3.2 0.00 0.00 0.00 82 1009.5
20260504043704 12 227 0.0 3.2 0.00 0.00 0.00 83 1009.4
20260504043204 12 227 0.0 3.2 0.00 0.00 0.00 83 1009.4
20260504042705 12 227 0.0 3.2 0.00 0.00 0.00 83 1009.4
20260504042205 12 227 0.0 1.6 0.00 0.00 0.00 83 1009.4
20260504040704 12 216 0.0 1.6 0.00 0.00 0.00 83 1009.4
20260504040204 12 216 0.0 1.6 0.00 0.00 0.00 83 1009.4
20260504035704 12 216 0.0 3.2 0.00 0.00 0.00 83 1009.4
20260504035204 12 216 0.0 3.2 0.00 0.00 0.00 83 1009.4
20260504034704 12 216 0.0 3.2 0.00 0.00 0.00 83 1009.4
20260504034205 12 216 1.6 3.2 0.00 0.00 0.00 83 1009.5
20260504033704 12 216 0.0 3.2 0.00 0.00 0.00 83 1009.5
20260504033204 13 216 0.0 4.8 0.00 0.00 0.00 83 1009.6
20260504032704 13 216 0.0 4.8 0.00 0.00 0.00 83 1009.5
20260504031704 13 216 0.0 1.6 0.00 0.00 0.00 83 1009.5
20260504031204 13 216 0.0 1.6 0.00 0.00 0.00 83 1009.4
20260504030704 13 216 0.0 3.2 0.00 0.00 0.00 83 1009.4
20260504030204 13 216 0.0 3.2 0.00 0.00 0.00 83 1009.3
20260504025704 13 216 0.0 3.2 0.00 0.00 0.00 83 1009.3
20260504025205 13 216 0.0 4.8 0.00 0.00 0.00 83 1009.3
20260504024704 13 216 0.0 4.8 0.00 0.00 0.00 83 1009.2
20260504024204 13 216 0.0 4.8 0.00 0.00 0.00 83 1009.2
20260504023704 13 216 0.0 4.8 0.00 0.00 0.00 83 1009.2
20260504023205 13 217 1.6 4.8 0.00 0.00 0.00 83 1009.2
20260504022204 13 217 1.6 1.6 0.00 0.00 0.00 83 1009.1
20260504021704 13 217 0.0 1.6 0.00 0.00 0.00 83 1009.1
20260504021204 13 217 0.0 1.6 0.00 0.00 0.00 83 1009.1
20260504020705 13 217 0.0 1.6 0.00 0.00 0.00 83 1009.1
20260504015704 13 217 0.0 1.6 0.00 0.00 0.00 83 1009.2
20260504015205 13 217 0.0 3.2 0.00 0.00 0.00 83 1009.1
20260504014704 13 217 0.0 4.8 0.00 0.00 0.00 83 1009.1
20260504014205 13 217 0.0 6.4 0.00 0.00 0.00 83 1009.1
20260504013704 13 219 0.0 6.4 0.00 0.00 0.00 83 1009.1
20260504013204 13 219 0.0 6.4 0.00 0.00 0.00 83 1009.1
20260504012705 13 217 1.6 6.4 0.00 0.00 0.00 83 1009.1
20260504012205 13 217 1.6 6.4 0.00 0.00 0.00 83 1009.1
20260504011705 13 217 1.6 4.8 0.00 0.00 0.00 83 1009.1
20260504011205 13 216 1.6 4.8 0.00 0.00 0.00 83 1009.3
20260504010704 13 216 1.6 6.4 0.00 0.00 0.00 83 1009.2
20260504010204 13 216 1.6 8.0 0.00 0.00 0.00 82 1009.2
20260504005704 13 216 1.6 9.7 0.00 0.00 0.00 82 1009.1
20260504005204 13 228 1.6 9.7 0.00 0.00 0.00 82 1009.1
20260504004706 13 233 1.6 9.7 0.00 0.00 0.00 82 1009.0
20260504004207 13 217 3.2 6.4 0.00 0.00 0.00 82 1009.1
20260504003704 13 216 0.0 6.4 0.00 0.00 0.00 82 1009.0
20260504003204 13 216 1.6 6.4 0.00 0.00 0.00 82 1008.9
20260504002704 13 216 1.6 4.8 0.00 0.00 0.00 82 1008.7
20260504002205 13 216 1.6 6.4 0.00 0.00 0.00 82 1008.7
20260504001704 13 216 1.6 6.4 0.00 0.00 0.00 82 1008.8
20260504001204 13 214 1.6 4.8 0.00 0.00 0.00 82 1008.8
20260504000704 13 212 0.0 4.8 0.00 0.00 0.00 82 1008.9
20260504000204 14 212 0.0 4.8 0.00 0.00 0.00 81 1008.9
20260503235709 14 212 1.6 4.8 0.00 0.00 0.00 81 1008.8
20260503235204 14 240 1.6 8.0 0.00 0.00 0.00 81 1008.8
20260503234704 14 240 1.6 8.0 0.00 0.00 0.00 81 1008.9
20260503234206 14 240 0.0 8.0 0.00 0.00 0.00 81 1008.9
20260503233704 14 240 3.2 8.0 0.00 0.00 0.00 81 1008.9
20260503233204 14 214 0.0 8.0 0.00 0.00 0.00 81 1008.8
20260503232205 14 199 0.0 3.2 0.00 0.00 0.00 81 1008.8
20260503231704 14 173 0.0 4.8 0.00 0.00 0.00 81 1008.7
20260503231204 14 173 1.6 4.8 0.00 0.00 0.00 81 1008.8
20260503230705 14 173 0.0 4.8 0.00 0.00 0.00 81 1008.8
20260503230203 14 173 1.6 3.2 0.00 0.00 0.00 81 1008.8
20260503225707 14 172 0.0 4.8 0.00 0.00 0.00 80 1008.7
20260503225204 14 172 0.0 6.4 0.00 0.00 0.00 80 1008.7
20260503224207 14 173 1.6 6.4 0.00 0.00 0.00 80 1008.6
20260503223204 15 189 0.0 4.8 0.00 0.00 0.00 80 1008.6
20260503222204 15 186 3.2 6.4 0.00 0.00 0.00 80 1008.4
20260503221704 15 195 1.6 6.4 0.00 0.00 0.00 80 1008.5
20260503221204 15 195 0.0 6.4 0.00 0.00 0.00 79 1008.4
20260503220705 15 195 1.6 4.8 0.00 0.00 0.00 79 1008.5
20260503220204 15 193 1.6 4.8 0.00 0.00 0.00 79 1008.4
20260503215705 15 193 1.6 4.8 0.00 0.00 0.00 78 1008.4
20260503215205 15 193 1.6 4.8 0.00 0.00 0.00 78 1008.4
20260503214205 15 193 1.6 3.2 0.00 0.00 0.00 77 1008.4
20260503213704 15 193 0.0 3.2 0.00 0.00 0.00 77 1008.3
20260503213204 15 193 0.0 4.8 0.00 0.00 0.00 76 1008.3
20260503212705 15 193 1.6 4.8 0.00 0.00 0.00 76 1008.3
20260503212205 15 193 1.6 6.4 0.00 0.00 0.00 75 1008.4
20260503211714 15 193 0.0 6.4 0.00 0.00 0.00 75 1008.3
20260503211204 15 193 0.0 1.6 0.00 0.00 0.00 74 1008.1
20260503210704 15 195 0.0 3.2 0.00 0.00 0.00 74 1008.0
20260503205205 15 195 0.0 4.8 0.00 0.00 0.00 73 1007.9
20260503204205 15 195 0.0 1.6 0.00 0.00 0.00 72 1007.8
20260503203705 15 195 0.0 1.6 0.00 0.00 0.00 71 1007.8
20260503202206 16 195 0.0 1.6 0.00 0.00 0.00 70 1007.7
20260503201705 16 195 0.0 1.6 0.00 0.00 0.00 69 1007.5
20260503201205 16 195 0.0 3.2 0.00 0.00 0.00 69 1007.5
20260503200705 16 195 0.0 3.2 0.00 0.00 0.00 68 1007.4
20260503200204 16 195 0.0 3.2 0.00 0.00 0.00 68 1007.3
20260503195704 16 195 0.0 3.2 0.00 0.00 0.00 68 1007.3
20260503194704 16 195 0.0 3.2 0.00 0.00 0.00 67 1007.2
20260503194208 16 195 0.0 3.2 0.00 0.00 0.00 67 1007.1
20260503193704 16 195 0.0 3.2 0.00 0.00 0.00 66 1007.2
20260503193203 16 195 0.0 4.8 0.00 0.00 0.00 66 1007.2
20260503192704 17 195 0.0 4.8 0.00 0.00 0.00 66 1007.1
20260503192204 17 195 0.0 4.8 0.00 0.00 0.00 65 1007.0
20260503191704 17 195 0.0 3.2 0.00 0.00 0.00 64 1007.0
20260503191204 17 195 0.0 3.2 0.00 0.00 0.00 64 1007.0
20260503185704 17 195 0.0 1.6 0.00 0.00 0.00 64 1006.8
20260503185204 17 195 0.0 3.2 0.00 0.00 0.00 64 1006.7
20260503184706 17 195 0.0 3.2 0.00 0.00 0.00 64 1006.7
20260503184204 17 195 0.0 3.2 0.00 0.00 0.00 64 1006.6
20260503183704 17 195 0.0 3.2 0.00 0.00 0.00 64 1006.6
20260503183205 17 195 0.0 4.8 0.00 0.00 0.00 64 1006.4
20260503182704 17 195 0.0 4.8 0.00 0.00 0.00 63 1006.5
20260503182205 18 195 0.0 4.8 0.00 0.00 0.00 63 1006.3
20260503181204 18 195 1.6 4.8 0.00 0.00 0.00 63 1006.4
20260503180705 18 195 1.6 4.8 0.00 0.00 0.00 63 1006.3
20260503180205 18 195 1.6 4.8 0.00 0.00 0.00 64 1006.2
20260503175705 18 196 1.6 6.4 0.00 0.00 0.00 64 1006.2
20260503175204 18 196 1.6 6.4 0.00 0.00 0.00 64 1006.3
20260503174705 18 197 3.2 6.4 0.00 0.00 0.00 64 1006.2
20260503174204 18 173 1.6 8.0 0.00 0.00 0.00 64 1006.3
20260503173704 18 202 1.6 8.0 0.00 0.00 0.00 63 1006.2
20260503173204 18 179 3.2 6.4 0.00 0.00 0.00 63 1006.3
20260503172705 18 137 3.2 6.4 0.00 0.03 0.00 62 1006.2
20260503172205 18 175 1.6 6.4 0.00 0.03 0.00 62 1006.2
20260503171704 18 171 1.6 6.4 0.00 0.03 0.00 62 1006.2
20260503171204 18 245 1.6 9.7 0.00 0.03 0.00 62 1006.2
20260503170704 18 241 1.6 9.7 0.00 0.03 0.00 62 1006.2
20260503170204 18 247 3.2 11.3 0.00 0.03 0.00 61 1006.2
20260503160205 18 243 1.6 9.7 0.00 0.03 0.00 61 1006.2
20260503150704 20 165 3.2 16.1 0.00 0.03 0.00 59 1006.3
20260503150204 20 238 4.8 11.3 0.00 0.03 0.00 57 1006.3